Wind_Speed
20 18 19 17 16 20 19 21 27 29 31 33 35 41 36 36 36 34 33 33 30 28
20 19 19 17 17 17 21 23 22 28 27 31 36 37 35 31 32 32 32 31 31 29
22 22 19 16 16 15 18 18 27 30 30 30 31 38 37 29 30 31 31 30 32 30
22 21 20 18 16 14 15 17 19 26 30 31 33 34 34 36 32 33 32 32 33 31
20 21 20 19 17 14 13 13 16 18 21 26 36 38 36 35 33 36 34 34 32 31
20 20 20 19 16 12 11 11 14 18 19 21 24 27 40 42 39 38 36 35 36 35
20 20 20 19 15 13 11 10 12 13 13 13 17 24 39 42 40 39 40 39 37 33
19 19 19 19 15 14 11 8 9 8 7 8 10 16 31 32 34 31 28 30 32 33
20 20 20 19 16 14 13 10 10 8 8 6 7 13 20 27 27 29 33 35 31 28
21 20 21 20 18 17 17 15 14 14 14 15 16 16 24 27 31 36 33 34 34 31
22 20 21 21 20 23 22 21 20 18 19 21 23 21 31 36 35 35 33 31 32 35
24 21 20 24 27 26 27 25 22 21 24 26 27 30 33 38 39 37 33 31 31 34
25 23 24 28 30 28 30 29 27 25 24 28 32 33 38 39 43 40 38 35 34 32
26 30 31 30 31 33 33 32 30 31 26 27 29 30 34 39 41 41 36 34 33 32
Wind_Direction
194 197 198 198 203 196 188 188 197 193 192 191 186 182 177 182 189 191 193 192 191 196
197 201 202 193 203 192 195 194 195 197 192 197 194 185 180 183 189 192 194 196 197 198
204 202 199 192 195 193 192 198 206 196 195 193 195 191 191 188 193 193 196 197 198 197
204 202 200 189 190 192 200 210 204 201 202 196 193 195 198 197 193 199 199 199 199 196
202 201 199 191 186 191 199 212 217 226 225 202 204 204 197 197 199 199 201 197 194 191
196 201 198 192 184 181 189 211 226 230 230 226 229 207 200 200 198 197 195 195 195 188
201 203 198 189 174 176 183 196 206 212 224 241 248 234 212 201 199 197 195 191 186 183
201 198 192 181 164 165 170 182 186 188 201 236 243 242 203 192 188 191 183 177 180 186
193 195 188 176 164 166 167 168 167 153 165 169 204 199 182 174 166 162 157 143 140 149
191 189 188 175 167 162 163 163 161 143 136 129 135 183 175 173 152 145 142 141 138 127
189 188 189 174 162 161 155 148 144 141 138 134 134 160 157 145 135 129 128 131 132 132
180 181 182 157 159 154 149 141 135 135 136 135 132 141 148 135 127 118 116 118 119 124
179 174 162 163 156 148 148 139 135 128 130 135 135 137 142 142 129 114 109 109 110 116
168 164 170 162 158 150 139 132 122 115 113 120 130 129 134 139 134 123 113 107 106 108
Height
696 700 704 706 710 712 714 717 722 727 730 733 737 741 749 757 765 771 777 782 787 793
694 696 698 701 706 709 712 716 720 724 727 731 736 739 745 753 761 767 773 778 783 789
690 691 695 698 702 706 709 714 717 720 723 728 733 738 742 749 757 762 768 773 780 785
686 690 693 695 699 703 706 710 714 716 721 723 728 733 739 744 749 757 763 768 774 779
684 687 690 692 695 700 703 707 711 714 717 718 723 726 731 739 745 749 756 761 767 773
680 684 688 690 692 697 700 704 707 710 713 716 720 723 722 729 736 742 747 754 760 766
676 680 684 687 690 693 697 702 704 706 709 711 712 713 715 718 727 734 738 745 752 759
673 677 681 684 687 691 695 699 701 703 705 706 707 707 707 712 718 727 734 738 745 753
670 674 677 681 685 689 693 697 700 702 703 704 704 706 707 711 716 722 730 734 742 749
666 669 675 678 683 688 692 695 699 701 703 704 705 707 708 712 718 724 731 737 742 750
662 667 672 676 681 685 690 694 698 701 703 705 709 708 711 715 721 729 738 745 748 749
657 664 670 672 678 683 687 694 698 703 704 707 712 714 714 719 727 737 746 753 755 757
654 661 667 671 676 681 686 693 699 705 708 711 715 720 720 722 730 741 750 758 762 767
650 656 664 670 675 679 686 694 702 707 715 717 721 725 725 728 731 739 751 761 769 777